Location: Wingville
(42.9917°N, 90.4915°W)
Time: 14:41:53
(UTC+00:00)

CUBESAT XI-V - Pass Details

Date: 09 July 2022
Orbit: 668 x 690 km, 98.1° (Epoch: 18 August)

Event Time Altitude Azimuth Distance (km) Brightness Sun altitude
Exits shadow 07:45:09 44° 163° (SSE) 934 ? -20.9°
Maximum altitude 07:46:37 87° 79° (E) 677 ? -20.8°
Drops below altitude 10° 07:51:14 10° 348° (NNW) 2,104 ? -20.4°
Sets 07:53:28 0° 348° (NNW) 3,021 ? -20.2°
